Weather History for Knoxville, IA

Change the Weather History Date:

Thursday, January 16, 2014

  Actual Average Record
Temperature  
Mean Temperature 24 °F -  
Max Temperature 39 °F 32 °F 61 °F (1990)
Min Temperature 8 °F 11 °F -20 °F (1977)
Degree Days  
Heating Degree Days 42    
Moisture  
Dew Point 17 °F    
Average Humidity 64    
Maximum Humidity 93    
Minimum Humidity 48    
Precipitation  
Precipitation 0.02 in - - ()
Sea Level Pressure  
Sea Level Pressure 29.70 in    
Wind  
Wind Speed 16 mph (WNW)    
Max Wind Speed 31 mph    
Max Gust Speed 50 mph    
Visibility 8 miles    
Events Rain , Snow    
Averages and records for this station are not official NWS values.
T = Trace of Precipitation, MM = Missing Value Source: NWS Daily Summary

Daily Weather History Graph

Daily Weather History Graph

Search for Another Location

Airport:

Trip Planner

Search our weather history database for the weather conditions in past years. The results will help you decide how hot, cold, wet, or windy it might be!

Date:

Astronomy

Jan. 16, 2014 Rise Set
Actual Time 7:35 AM CST 5:09 PM CST
Civil Twilight 7:05 AM CST 5:39 PM CST
Nautical Twilight 6:31 AM CST 6:13 PM CST
Astronomical Twilight 5:58 AM CST 6:46 PM CST
Moon 6:02 PM CST (1/16) 7:28 AM CST (1/16)
Length of Visible Light 10h 34m
Length of Day
9h 33m
Full, 100% of the Moon is Illuminated
Jan 16
Full
Jan 23
Last Quarter
Jan 30
New
Feb 6
First Quarter
Feb 14
Full

Hourly Weather History & Observations

Time (CST) Temp. Windchill Dew Point Humidity Pressure Visibility Wind Dir Wind Speed Gust Speed Precip Events Conditions
12:15 AM 30.2 °F 20.2 °F 17.6 °F 60% 29.68 in 10.0 mi SW 12.7 mph - N/A   Overcast
12:35 AM 32.0 °F 21.6 °F 17.6 °F 55% 29.67 in 10.0 mi SW 15.0 mph 21.9 mph N/A   Overcast
12:55 AM 32.0 °F 22.5 °F 17.6 °F 55% 29.66 in 10.0 mi SW 12.7 mph 21.9 mph N/A   Overcast
1:15 AM 32.0 °F 20.8 °F 19.4 °F 60% 29.64 in 10.0 mi SW 17.3 mph 25.3 mph N/A   Overcast
1:35 AM 32.0 °F 22.5 °F 19.4 °F 60% 29.63 in 10.0 mi SW 12.7 mph 24.2 mph N/A   Overcast
1:55 AM 32.0 °F 22.1 °F 21.2 °F 64% 29.61 in 10.0 mi SW 13.8 mph - N/A   Overcast
2:15 AM 33.8 °F 29.6 °F 21.2 °F 60% 29.64 in 10.0 mi West 4.6 mph 12.7 mph N/A   Overcast
2:35 AM 33.8 °F 28.6 °F 21.2 °F 60% 29.64 in 10.0 mi West 5.8 mph - N/A   Overcast
2:55 AM 32.0 °F 25.6 °F 23.0 °F 69% 29.63 in 10.0 mi WSW 6.9 mph - N/A   Overcast
3:15 AM 32.0 °F 24.8 °F 23.0 °F 69% 29.62 in 10.0 mi WSW 8.1 mph - N/A   Overcast
3:35 AM 32.0 °F 25.6 °F 23.0 °F 69% 29.62 in 10.0 mi WSW 6.9 mph - N/A   Overcast
3:55 AM 33.8 °F 26.4 °F 23.0 °F 65% 29.61 in 10.0 mi WSW 9.2 mph - N/A   Overcast
4:15 AM 33.8 °F 25.3 °F 23.0 °F 65% 29.60 in 10.0 mi WSW 11.5 mph - N/A   Scattered Clouds
4:35 AM 33.8 °F 25.3 °F 23.0 °F 65% 29.59 in 10.0 mi West 11.5 mph - N/A   Scattered Clouds
4:55 AM 32.0 °F 24.8 °F 23.0 °F 69% 29.59 in 10.0 mi WSW 8.1 mph - N/A   Partly Cloudy
5:15 AM 35.6 °F 27.5 °F 24.8 °F 65% 29.59 in 10.0 mi WSW 11.5 mph - N/A   Scattered Clouds
5:35 AM 35.6 °F 26.2 °F 24.8 °F 65% 29.59 in 10.0 mi West 15.0 mph - N/A   Partly Cloudy
5:55 AM 35.6 °F 25.9 °F 24.8 °F 65% 29.60 in 10.0 mi West 16.1 mph 21.9 mph N/A   Clear
6:15 AM 37.4 °F 27.5 °F 23.0 °F 56% 29.60 in 10.0 mi West 18.4 mph - N/A   Partly Cloudy
6:35 AM 37.4 °F 27.8 °F 23.0 °F 56% 29.60 in 10.0 mi West 17.3 mph 25.3 mph N/A   Scattered Clouds
6:55 AM 39.2 °F 30.5 °F 23.0 °F 52% 29.60 in 10.0 mi West 16.1 mph - N/A   Mostly Cloudy
7:15 AM 39.2 °F 29.6 °F 23.0 °F 52% 29.60 in 10.0 mi WNW 19.6 mph 31.1 mph N/A   Overcast
7:35 AM 39.2 °F 28.0 °F 24.8 °F 56% 29.60 in 10.0 mi WNW 26.5 mph 35.7 mph N/A   Overcast
7:55 AM 39.2 °F 29.8 °F 24.8 °F 56% 29.61 in 10.0 mi WNW 18.4 mph 31.1 mph N/A   Overcast
8:15 AM 39.2 °F 29.6 °F 24.8 °F 56% 29.61 in 10.0 mi WNW 19.6 mph 31.1 mph N/A   Overcast
8:35 AM 39.2 °F 29.0 °F 26.6 °F 61% 29.62 in 10.0 mi WNW 21.9 mph 32.2 mph N/A   Overcast
8:55 AM 39.2 °F 29.3 °F 26.6 °F 61% 29.61 in 10.0 mi West 20.7 mph 34.5 mph N/A   Overcast
9:15 AM 39.2 °F 27.2 °F 24.8 °F 56% 29.62 in 10.0 mi WNW 31.1 mph 49.5 mph N/A   Overcast
9:35 AM 37.4 °F 25.9 °F 23.0 °F 56% 29.63 in 10.0 mi NW 25.3 mph 36.8 mph N/A   Mostly Cloudy
9:55 AM 39.2 °F 28.7 °F 23.0 °F 52% 29.64 in 10.0 mi NW 23.0 mph 39.1 mph N/A   Mostly Cloudy
10:15 AM 37.4 °F 26.6 °F 23.0 °F 56% 29.65 in 10.0 mi NW 21.9 mph 41.4 mph N/A   Overcast
10:35 AM 37.4 °F 26.4 °F 23.0 °F 56% 29.65 in 10.0 mi NW 23.0 mph 31.1 mph N/A   Overcast
10:55 AM 37.4 °F 25.9 °F 21.2 °F 52% 29.65 in 10.0 mi NW 25.3 mph 34.5 mph N/A   Overcast
11:15 AM 37.4 °F 24.8 °F 21.2 °F 52% 29.66 in 10.0 mi NW 31.1 mph 40.3 mph N/A   Overcast
11:35 AM 37.4 °F 26.4 °F 23.0 °F 56% 29.65 in 10.0 mi NW 23.0 mph 34.5 mph N/A   Overcast
11:55 AM 37.4 °F 26.6 °F 21.2 °F 52% 29.65 in 10.0 mi NW 21.9 mph 29.9 mph N/A   Overcast
12:15 PM 37.4 °F 26.4 °F 21.2 °F 52% 29.66 in 10.0 mi WNW 23.0 mph 34.5 mph N/A   Overcast
12:35 PM 37.4 °F 26.1 °F 19.4 °F 48% 29.65 in 10.0 mi WNW 24.2 mph 29.9 mph N/A   Overcast
12:55 PM 37.4 °F 28.5 °F 19.4 °F 48% 29.65 in 10.0 mi NW 15.0 mph 27.6 mph N/A   Overcast
1:15 PM 35.6 °F 24.8 °F 19.4 °F 52% 29.66 in 10.0 mi NW 19.6 mph 29.9 mph N/A   Mostly Cloudy
1:35 PM 35.6 °F 25.9 °F 19.4 °F 52% 29.66 in 10.0 mi WNW 16.1 mph 26.5 mph N/A   Mostly Cloudy
1:55 PM 33.8 °F 22.5 °F 21.2 °F 60% 29.66 in 6.0 mi WNW 19.6 mph - N/A Rain Light Rain
2:35 PM 32.0 °F 22.1 °F 24.8 °F 75% 29.67 in 2.5 mi West 13.8 mph 20.7 mph N/A Snow Light Snow
2:55 PM 32.0 °F 22.5 °F 28.4 °F 87% 29.67 in 3.0 mi West 12.7 mph - N/A Snow Light Snow
3:15 PM 32.0 °F 23.6 °F 28.4 °F 87% 29.66 in 8.0 mi West 10.4 mph 16.1 mph N/A Snow Light Snow
3:35 PM 32.0 °F 23.0 °F 28.4 °F 87% 29.65 in 10.0 mi WSW 11.5 mph - N/A   Overcast
3:55 PM 33.8 °F 26.4 °F 28.4 °F 81% 29.64 in 10.0 mi WSW 9.2 mph - N/A   Mostly Cloudy
4:15 PM 33.8 °F 27.0 °F 28.4 °F 81% 29.63 in 10.0 mi WSW 8.1 mph - N/A   Mostly Cloudy
4:35 PM 32.0 °F 21.2 °F 30.2 °F 93% 29.62 in 0.2 mi WSW 16.1 mph 25.3 mph N/A Snow Light Snow
4:55 PM 28.4 °F 13.0 °F 26.6 °F 93% 29.66 in 0.2 mi North 28.8 mph 38.0 mph 0.02 in Snow Heavy Snow
5:15 PM 23.0 °F 5.1 °F 21.2 °F 93% 29.72 in 0.2 mi NNW 31.1 mph 40.3 mph N/A Snow Light Snow
5:35 PM 19.4 °F 0.8 °F 14.0 °F 80% 29.76 in 0.2 mi NNW 28.8 mph 42.6 mph N/A Snow Light Snow
5:55 PM 19.4 °F 3.2 °F 12.2 °F 74% 29.79 in 2.0 mi NW 20.7 mph 36.8 mph N/A Snow Light Snow
6:15 PM 17.6 °F -0.6 °F 12.2 °F 79% 29.81 in 2.0 mi NW 25.3 mph 34.5 mph N/A Snow Light Snow
6:35 PM 14.0 °F -6.8 °F 8.6 °F 79% 29.83 in 0.8 mi NW 29.9 mph 41.4 mph N/A Snow Light Snow
6:55 PM 12.2 °F -7.9 °F 5.0 °F 73% 29.85 in 1.2 mi NW 25.3 mph 36.8 mph N/A Snow Light Snow
7:15 PM 12.2 °F -7.5 °F 3.2 °F 67% 29.86 in 3.0 mi NW 24.2 mph 36.8 mph N/A Snow Light Snow
7:35 PM 12.2 °F -5.8 °F 3.2 °F 67% 29.87 in 9.0 mi NW 19.6 mph - N/A Snow Light Snow
7:55 PM 12.2 °F -7.5 °F 5.0 °F 73% 29.88 in 3.0 mi NW 24.2 mph 33.4 mph N/A Snow Light Snow
8:15 PM 10.4 °F -7.7 °F -2.2 °F 57% 29.89 in 8.0 mi NW 18.4 mph 33.4 mph N/A   Light Freezing Rain
8:35 PM 10.4 °F -11.7 °F 1.4 °F 67% 29.89 in 3.0 mi NW 29.9 mph 36.8 mph N/A Rain Light Freezing Rain
8:55 PM 10.4 °F -7.7 °F 1.4 °F 67% 29.90 in 6.0 mi WNW 18.4 mph - N/A Snow Light Snow
9:15 PM 10.4 °F -10.7 °F -0.4 °F 62% 29.91 in 2.0 mi NW 26.5 mph 35.7 mph N/A Snow Light Snow
9:35 PM 10.4 °F -8.6 °F -2.2 °F 57% 29.92 in 8.0 mi NW 20.7 mph 31.1 mph N/A   Light Freezing Rain
9:55 PM 10.4 °F -11.4 °F -0.4 °F 62% 29.92 in 5.0 mi NW 28.8 mph 34.5 mph N/A   Light Freezing Rain
10:15 PM 10.4 °F -7.2 °F -2.2 °F 57% 29.93 in 9.0 mi NNW 17.3 mph 29.9 mph N/A Rain Light Freezing Rain
10:35 PM 8.6 °F -10.0 °F -2.2 °F 62% 29.93 in 10.0 mi NNW 18.4 mph 26.5 mph N/A Rain Light Freezing Rain
10:55 PM 8.6 °F -10.0 °F 1.4 °F 73% 29.94 in 3.0 mi NW 18.4 mph 26.5 mph N/A Snow Light Snow
11:15 PM 8.6 °F -8.3 °F -2.2 °F 62% 29.93 in 10.0 mi NW 15.0 mph 26.5 mph N/A   Light Freezing Rain
11:35 PM 8.6 °F -10.5 °F -2.2 °F 62% 29.94 in 10.0 mi NW 19.6 mph 25.3 mph N/A Rain Light Freezing Rain
11:55 PM 8.6 °F -11.4 °F -0.4 °F 67% 29.93 in 9.0 mi NNW 21.9 mph - N/A   Light Freezing Rain